Time,TemperatureF,DewpointF,PressureIn,WindDirection,WindDirectionDegrees,WindSpeedMPH,WindSpeedGustMPH,Humidity,HourlyPrecipIn,Conditions,Clouds,dailyrainin,SoftwareType,DateUTC
2013-02-02 00:01:00,40.0,-99.9,-100.00,SSW,205,0.0,1.0,-999,-99.99,,,-99.99,,2013-02-02 08:01:00,
2013-02-02 00:53:00,36.0,-99.9,-100.00,SE,137,0.0,1.0,-999,-99.99,,,-99.99,,2013-02-02 08:53:00,
2013-02-02 01:02:00,36.0,-99.9,-100.00,SE,137,0.0,1.0,-999,-99.99,,,-99.99,,2013-02-02 09:02:00,
2013-02-02 01:32:00,35.0,-99.9,-100.00,South,185,1.0,2.0,-999,-99.99,,,-99.99,,2013-02-02 09:32:00,
2013-02-02 01:42:00,35.0,-99.9,-100.00,South,185,1.0,2.0,-999,-99.99,,,-99.99,,2013-02-02 09:42:00,
2013-02-02 01:52:00,35.0,-99.9,-100.00,South,185,1.0,2.0,-999,-99.99,,,-99.99,,2013-02-02 09:52:00,
2013-02-02 02:22:00,35.0,-99.9,-100.00,South,171,1.0,1.0,-999,-99.99,,,-99.99,,2013-02-02 10:22:00,
2013-02-02 02:32:00,33.0,-99.9,-100.00,SE,125,0.0,1.0,-999,-99.99,,,-99.99,,2013-02-02 10:32:00,
2013-02-02 02:42:00,33.0,-99.9,-100.00,SE,125,0.0,1.0,-999,-99.99,,,-99.99,,2013-02-02 10:42:00,
2013-02-02 02:52:00,33.0,-99.9,-100.00,SE,125,0.0,1.0,-999,-99.99,,,-99.99,,2013-02-02 10:52:00,
2013-02-02 03:02:00,36.0,-99.9,-100.00,WSW,244,0.0,1.0,-999,-99.99,,,-99.99,,2013-02-02 11:02:00,
2013-02-02 03:11:00,36.0,-99.9,-100.00,WSW,244,0.0,1.0,-999,-99.99,,,-99.99,,2013-02-02 11:11:00,
2013-02-02 03:22:00,35.0,-99.9,-100.00,SE,142,1.0,1.0,-999,-99.99,,,-99.99,,2013-02-02 11:22:00,
2013-02-02 03:32:00,33.0,-99.9,-100.00,WSW,237,0.0,0.0,-999,-99.99,,,-99.99,,2013-02-02 11:32:00,
2013-02-02 03:42:00,33.0,-99.9,-100.00,WSW,237,0.0,0.0,-999,-99.99,,,-99.99,,2013-02-02 11:42:00,
2013-02-02 03:52:00,33.0,-99.9,-100.00,WSW,237,0.0,0.0,-999,-99.99,,,-99.99,,2013-02-02 11:52:00,
2013-02-02 04:32:00,33.0,-99.9,-100.00,SSE,163,0.0,1.0,-999,-99.99,,,-99.99,,2013-02-02 12:32:00,
2013-02-02 04:42:00,33.0,-99.9,-100.00,SSE,163,0.0,1.0,-999,-99.99,,,-99.99,,2013-02-02 12:42:00,
2013-02-02 04:53:00,33.0,-99.9,-100.00,SSE,163,0.0,1.0,-999,-99.99,,,-99.99,,2013-02-02 12:53:00,
2013-02-02 05:03:00,32.0,-99.9,-100.00,ESE,118,1.0,2.0,-999,-99.99,,,-99.99,,2013-02-02 13:03:00,
2013-02-02 05:10:00,32.0,-99.9,-100.00,South,185,1.0,2.0,-999,-99.99,,,-99.99,,2013-02-02 13:10:00,
2013-02-02 05:11:00,32.0,-99.9,-100.00,ESE,118,1.0,2.0,-999,-99.99,,,-99.99,,2013-02-02 13:11:00,
2013-02-02 05:22:00,32.0,-99.9,-100.00,ESE,118,1.0,2.0,-999,-99.99,,,-99.99,,2013-02-02 13:22:00,
2013-02-02 05:33:00,32.0,-99.9,-100.00,SSE,152,1.0,1.0,-999,-99.99,,,-99.99,,2013-02-02 13:33:00,
2013-02-02 05:43:00,32.0,-99.9,-100.00,SSE,152,1.0,1.0,-999,-99.99,,,-99.99,,2013-02-02 13:43:00,
2013-02-02 05:52:00,32.0,-99.9,-100.00,South,185,1.0,2.0,-999,-99.99,,,-99.99,,2013-02-02 13:52:00,
2013-02-02 06:03:00,32.0,-99.9,-100.00,South,185,1.0,2.0,-999,-99.99,,,-99.99,,2013-02-02 14:03:00,
2013-02-02 06:22:00,32.0,-99.9,-100.00,SW,233,1.0,2.0,-999,-99.99,,,-99.99,,2013-02-02 14:22:00,
2013-02-02 06:33:00,32.0,-99.9,-100.00,West,262,0.0,0.0,-999,-99.99,,,-99.99,,2013-02-02 14:33:00,
2013-02-02 06:42:00,32.0,-99.9,-100.00,West,262,0.0,0.0,-999,-99.99,,,-99.99,,2013-02-02 14:42:00,
2013-02-02 06:52:00,32.0,-99.9,-100.00,West,262,0.0,0.0,-999,-99.99,,,-99.99,,2013-02-02 14:52:00,
2013-02-02 07:33:00,31.0,-99.9,-100.00,WSW,257,0.0,1.0,-999,-99.99,,,-99.99,,2013-02-02 15:33:00,
2013-02-02 07:42:00,31.0,-99.9,-100.00,WSW,257,0.0,1.0,-999,-99.99,,,-99.99,,2013-02-02 15:42:00,
2013-02-02 07:52:00,31.0,-99.9,-100.00,WSW,257,0.0,1.0,-999,-99.99,,,-99.99,,2013-02-02 15:52:00,
2013-02-02 08:32:00,31.0,-99.9,-100.00,WSW,238,0.0,1.0,-999,-99.99,,,-99.99,,2013-02-02 16:32:00,
2013-02-02 08:43:00,31.0,-99.9,-100.00,WSW,238,0.0,1.0,-999,-99.99,,,-99.99,,2013-02-02 16:43:00,
2013-02-02 08:52:00,31.0,-99.9,-100.00,WSW,238,0.0,1.0,-999,-99.99,,,-99.99,,2013-02-02 16:52:00,
2013-02-02 09:03:00,32.0,-99.9,-100.00,WSW,240,0.0,0.0,-999,-99.99,,,-99.99,,2013-02-02 17:03:00,
2013-02-02 09:12:00,32.0,-99.9,-100.00,WSW,240,0.0,0.0,-999,-99.99,,,-99.99,,2013-02-02 17:12:00,
2013-02-02 09:23:00,32.0,-99.9,-100.00,WSW,240,0.0,0.0,-999,-99.99,,,-99.99,,2013-02-02 17:23:00,
2013-02-02 09:33:00,33.0,-99.9,-100.00,South,181,0.0,0.0,-999,-99.99,,,-99.99,,2013-02-02 17:33:00,
2013-02-02 09:42:00,33.0,-99.9,-100.00,South,181,0.0,0.0,-999,-99.99,,,-99.99,,2013-02-02 17:42:00,
2013-02-02 09:53:00,33.0,-99.9,-100.00,South,181,0.0,0.0,-999,-99.99,,,-99.99,,2013-02-02 17:53:00,
2013-02-02 10:03:00,35.0,-99.9,-100.00,ESE,110,0.0,2.0,-999,-99.99,,,-99.99,,2013-02-02 18:03:00,
2013-02-02 10:12:00,35.0,-99.9,-100.00,ESE,110,0.0,2.0,-999,-99.99,,,-99.99,,2013-02-02 18:12:00,
2013-02-02 10:32:00,38.0,-99.9,-100.00,ENE,78,0.0,2.0,-999,-99.99,,,-99.99,,2013-02-02 18:32:00,
2013-02-02 10:42:00,38.0,-99.9,-100.00,ENE,78,0.0,2.0,-999,-99.99,,,-99.99,,2013-02-02 18:42:00,
2013-02-02 10:52:00,38.0,-99.9,-100.00,ENE,78,0.0,2.0,-999,-99.99,,,-99.99,,2013-02-02 18:52:00,
2013-02-02 11:00:00,40.0,-99.9,-100.00,SSE,148,4.0,10.0,-999,-99.99,,,-99.99,,2013-02-02 19:00:00,
2013-02-02 11:33:00,40.0,-99.9,-100.00,SE,128,2.0,6.0,-999,-99.99,,,-99.99,,2013-02-02 19:33:00,
2013-02-02 11:42:00,40.0,-99.9,-100.00,SE,128,2.0,6.0,-999,-99.99,,,-99.99,,2013-02-02 19:42:00,
2013-02-02 11:52:00,40.0,-99.9,-100.00,SSE,148,4.0,10.0,-999,-99.99,,,-99.99,,2013-02-02 19:52:00,
2013-02-02 12:32:00,45.0,-99.9,-100.00,ENE,72,6.0,6.0,-999,-99.99,,,-99.99,,2013-02-02 20:32:00,
2013-02-02 12:42:00,45.0,-99.9,-100.00,ENE,72,6.0,6.0,-999,-99.99,,,-99.99,,2013-02-02 20:42:00,
2013-02-02 12:52:00,45.0,-99.9,-100.00,ENE,72,6.0,6.0,-999,-99.99,,,-99.99,,2013-02-02 20:52:00,
2013-02-02 13:20:00,45.0,-99.9,-100.00,SE,140,2.0,5.0,-999,-99.99,,,-99.99,,2013-02-02 21:20:00,
2013-02-02 13:32:00,47.0,-99.9,-100.00,ESE,116,2.0,6.0,-999,-99.99,,,-99.99,,2013-02-02 21:32:00,
2013-02-02 13:43:00,47.0,-99.9,-100.00,ESE,116,2.0,6.0,-999,-99.99,,,-99.99,,2013-02-02 21:43:00,
2013-02-02 13:52:00,47.0,-99.9,-100.00,ESE,116,2.0,6.0,-999,-99.99,,,-99.99,,2013-02-02 21:52:00,
2013-02-02 14:03:00,45.0,-99.9,-100.00,SE,140,2.0,5.0,-999,-99.99,,,-99.99,,2013-02-02 22:03:00,
2013-02-02 14:12:00,45.0,-99.9,-100.00,SE,140,2.0,5.0,-999,-99.99,,,-99.99,,2013-02-02 22:12:00,
2013-02-02 14:32:00,50.0,-99.9,-100.00,SE,140,2.0,2.0,-999,-99.99,,,-99.99,,2013-02-02 22:32:00,
2013-02-02 14:42:00,50.0,-99.9,-100.00,SE,140,2.0,2.0,-999,-99.99,,,-99.99,,2013-02-02 22:42:00,
2013-02-02 14:52:00,50.0,-99.9,-100.00,SE,140,2.0,2.0,-999,-99.99,,,-99.99,,2013-02-02 22:52:00,
2013-02-02 15:02:00,48.0,-99.9,-100.00,ESE,105,3.0,5.0,-999,-99.99,,,-99.99,,2013-02-02 23:02:00,
2013-02-02 15:11:00,48.0,-99.9,-100.00,ESE,105,3.0,5.0,-999,-99.99,,,-99.99,,2013-02-02 23:11:00,
2013-02-02 15:33:00,49.0,-99.9,-100.00,ESE,118,1.0,3.0,-999,-99.99,,,-99.99,,2013-02-02 23:33:00,
2013-02-02 15:42:00,49.0,-99.9,-100.00,ESE,118,1.0,3.0,-999,-99.99,,,-99.99,,2013-02-02 23:42:00,
2013-02-02 15:52:00,49.0,-99.9,-100.00,ESE,118,1.0,3.0,-999,-99.99,,,-99.99,,2013-02-02 23:52:00,
2013-02-02 16:20:00,48.0,-99.9,-100.00,WSW,241,1.0,2.0,-999,-99.99,,,-99.99,,2013-02-03 00:20:00,
2013-02-02 16:22:00,49.0,-99.9,-100.00,SW,227,0.0,1.0,-999,-99.99,,,-99.99,,2013-02-03 00:22:00,
2013-02-02 16:32:00,51.0,-99.9,-100.00,SSE,148,0.0,2.0,-999,-99.99,,,-99.99,,2013-02-03 00:32:00,
2013-02-02 16:42:00,51.0,-99.9,-100.00,SSE,148,0.0,2.0,-999,-99.99,,,-99.99,,2013-02-03 00:42:00,
2013-02-02 16:52:00,51.0,-99.9,-100.00,SSE,148,0.0,2.0,-999,-99.99,,,-99.99,,2013-02-03 00:52:00,
2013-02-02 17:02:00,48.0,-99.9,-100.00,WSW,241,1.0,2.0,-999,-99.99,,,-99.99,,2013-02-03 01:02:00,
2013-02-02 17:11:00,48.0,-99.9,-100.00,WSW,241,1.0,2.0,-999,-99.99,,,-99.99,,2013-02-03 01:11:00,
2013-02-02 17:32:00,47.0,-99.9,-100.00,SSW,212,0.0,1.0,-999,-99.99,,,-99.99,,2013-02-03 01:32:00,
2013-02-02 17:42:00,47.0,-99.9,-100.00,SSW,212,0.0,1.0,-999,-99.99,,,-99.99,,2013-02-03 01:42:00,
2013-02-02 17:52:00,47.0,-99.9,-100.00,SSW,212,0.0,1.0,-999,-99.99,,,-99.99,,2013-02-03 01:52:00,
2013-02-02 18:32:00,45.0,-99.9,-100.00,SSW,202,0.0,2.0,-999,-99.99,,,-99.99,,2013-02-03 02:32:00,
2013-02-02 18:42:00,45.0,-99.9,-100.00,SSW,202,0.0,2.0,-999,-99.99,,,-99.99,,2013-02-03 02:42:00,
2013-02-02 18:53:00,45.0,-99.9,-100.00,SW,221,1.0,2.0,-999,-99.99,,,-99.99,,2013-02-03 02:53:00,
2013-02-02 19:02:00,45.0,-99.9,-100.00,SW,221,1.0,2.0,-999,-99.99,,,-99.99,,2013-02-03 03:02:00,
2013-02-02 19:32:00,43.0,-99.9,-100.00,South,172,0.0,1.0,-999,-99.99,,,-99.99,,2013-02-03 03:32:00,
2013-02-02 19:42:00,43.0,-99.9,-100.00,South,172,0.0,1.0,-999,-99.99,,,-99.99,,2013-02-03 03:42:00,
2013-02-02 19:52:00,43.0,-99.9,-100.00,South,172,0.0,1.0,-999,-99.99,,,-99.99,,2013-02-03 03:52:00,
2013-02-02 20:22:00,41.0,-99.9,-100.00,NE,56,0.0,2.0,-999,-99.99,,,-99.99,,2013-02-03 04:22:00,
2013-02-02 20:32:00,41.0,-99.9,-100.00,West,272,3.0,7.0,-999,-99.99,,,-99.99,,2013-02-03 04:32:00,
2013-02-02 20:42:00,41.0,-99.9,-100.00,West,272,3.0,7.0,-999,-99.99,,,-99.99,,2013-02-03 04:42:00,
2013-02-02 20:52:00,41.0,-99.9,-100.00,West,281,3.0,4.0,-999,-99.99,,,-99.99,,2013-02-03 04:52:00,
2013-02-02 21:04:00,40.0,-99.9,-100.00,WNW,303,2.0,3.0,-999,-99.99,,,-99.99,,2013-02-03 05:04:00,
2013-02-02 21:12:00,40.0,-99.9,-100.00,WNW,303,2.0,3.0,-999,-99.99,,,-99.99,,2013-02-03 05:12:00,
2013-02-02 21:32:00,40.0,-99.9,-100.00,West,278,2.0,4.0,-999,-99.99,,,-99.99,,2013-02-03 05:32:00,
2013-02-02 21:42:00,40.0,-99.9,-100.00,West,278,2.0,4.0,-999,-99.99,,,-99.99,,2013-02-03 05:42:00,
2013-02-02 21:53:00,40.0,-99.9,-100.00,West,278,2.0,4.0,-999,-99.99,,,-99.99,,2013-02-03 05:53:00,
2013-02-02 22:22:00,38.0,-99.9,-100.00,WNW,284,3.0,5.0,-999,-99.99,,,-99.99,,2013-02-03 06:22:00,
2013-02-02 22:32:00,39.0,-99.9,-100.00,West,261,3.0,7.0,-999,-99.99,,,-99.99,,2013-02-03 06:32:00,
2013-02-02 22:42:00,39.0,-99.9,-100.00,West,261,3.0,7.0,-999,-99.99,,,-99.99,,2013-02-03 06:42:00,
2013-02-02 22:52:00,39.0,-99.9,-100.00,West,261,3.0,7.0,-999,-99.99,,,-99.99,,2013-02-03 06:52:00,
2013-02-02 23:02:00,39.0,-99.9,-100.00,West,272,5.0,6.0,-999,-99.99,,,-99.99,,2013-02-03 07:02:00,
2013-02-02 23:11:00,39.0,-99.9,-100.00,West,272,5.0,6.0,-999,-99.99,,,-99.99,,2013-02-03 07:11:00,
2013-02-02 23:22:00,39.0,-99.9,-100.00,West,272,5.0,6.0,-999,-99.99,,,-99.99,,2013-02-03 07:22:00,
2013-02-02 23:30:00,37.0,-99.9,-100.00,West,281,4.0,7.0,-999,-99.99,,,-99.99,,2013-02-03 07:30:00,
2013-02-02 23:32:00,38.0,-99.9,-100.00,West,264,4.0,6.0,-999,-99.99,,,-99.99,,2013-02-03 07:32:00,
2013-02-02 23:42:00,38.0,-99.9,-100.00,West,264,4.0,6.0,-999,-99.99,,,-99.99,,2013-02-03 07:42:00,
2013-02-02 23:53:00,37.0,-99.9,-100.00,West,266,7.0,7.0,-999,-99.99,,,-99.99,,2013-02-03 07:53:00,